Custer, SD

10:21 PM MST on February 10, 2016 (GMT -0700)
Custer County

Weather History for KCUT - October, 2012

Change the Weather History Date:

Monday, October 15, 2012

  Actual Average Record
Temperature  
Mean Temperature 53 °F 43 °F  
Max Temperature 68 °F 55 °F - ()
Min Temperature 38 °F 31 °F - ()
Degree Days  
Heating Degree Days 12 22  
Month to date heating degree days 340 300  
Since 1 July heating degree days 621 786  
Cooling Degree Days 0 0  
Month to date cooling degree days 0 0  
Year to date cooling degree days 390 177  
Growing Degree Days 5 (Base 50)    
Moisture  
Dew Point 26 °F    
Average Humidity 34    
Maximum Humidity 50    
Minimum Humidity 18    
Precipitation  
Precipitation 0.00 in 0.06 in - ()
Month to date precipitation 0.63 0.89  
Year to date precipitation 10.91 17.38  
Sea Level Pressure  
Sea Level Pressure 29.80 in    
Wind  
Wind Speed 6 mph (West)    
Max Wind Speed 13 mph    
Max Gust Speed 18 mph    
Visibility 10 miles    
Events      
T = Trace of Precipitation, MM = Missing Value Source: NWS Daily Summary

Daily Weather History Graph

Daily Weather History Graph

Search for Another Location

Airport or City:

Trip Planner

Search our weather history database for the weather conditions in past years. The results will help you decide how hot, cold, wet, or windy it might be!

Date:

Astronomy

Oct. 15, 2012 Rise Set
Actual Time 7:09 AM MDT 6:10 PM MDT
Civil Twilight 6:40 AM MDT 6:39 PM MDT
Nautical Twilight 6:07 AM MDT 7:12 PM MDT
Astronomical Twilight 5:33 AM MDT 7:45 PM MDT
Moon 7:24 AM MDT (10/15) 6:08 PM MDT (10/15)
Length of Visible Light 11h 58m
Length of Day
11h 00m
New Moon, 0% of the Moon is Illuminated
Oct 15
New Moon
Oct 21
First Quarter
Oct 29
Full
Nov 6
Last Quarter
Nov 13
New

Hourly Weather History & Observations

Time (MDT) Temp. Windchill Dew Point Humidity Pressure Visibility Wind Dir Wind Speed Gust Speed Precip Events Conditions
12:53 AM 48.0 °F - 27.0 °F 44% 29.96 in 10.0 mi WSW 5.8 mph - N/A   Clear
1:53 AM 45.0 °F 42.6 °F 27.0 °F 49% 29.95 in 10.0 mi SW 4.6 mph - N/A   Clear
2:53 AM 46.0 °F 43.1 °F 27.0 °F 47% 29.92 in 10.0 mi WSW 5.8 mph - N/A   Clear
3:53 AM 46.9 °F - 26.1 °F 44% 29.89 in 10.0 mi WSW 5.8 mph - N/A   Clear
4:53 AM 46.9 °F - 25.0 °F 42% 29.88 in 10.0 mi WSW 6.9 mph - N/A   Clear
5:53 AM 45.0 °F 43.5 °F 25.0 °F 46% 29.89 in 10.0 mi WSW 3.5 mph - N/A   Clear
6:53 AM 46.0 °F 44.8 °F 24.1 °F 42% 29.88 in 10.0 mi WSW 3.5 mph - N/A   Clear
7:53 AM 44.1 °F 42.5 °F 26.1 °F 49% 29.89 in 10.0 mi WNW 3.5 mph - N/A   Clear
8:53 AM 55.0 °F - 27.0 °F 34% 29.85 in 10.0 mi WSW 5.8 mph - N/A   Clear
9:53 AM 57.9 °F - 26.1 °F 30% 29.84 in 10.0 mi WSW 6.9 mph - N/A   Clear
10:53 AM 62.1 °F - 27.0 °F 26% 29.80 in 10.0 mi West 5.8 mph - N/A   Clear
12:53 PM 63.0 °F - 28.0 °F 27% 29.77 in 10.0 mi WSW 5.8 mph - N/A   Clear
1:53 PM 64.9 °F - 25.0 °F 22% 29.75 in 10.0 mi West 8.1 mph - N/A   Clear
2:53 PM 64.9 °F - 21.0 °F 19% 29.73 in 10.0 mi ESE 3.5 mph - N/A   Clear
3:53 PM 66.0 °F - 21.0 °F 18% 29.70 in 10.0 mi West 6.9 mph - N/A   Clear
4:53 PM 63.0 °F - 19.9 °F 19% 29.72 in 10.0 mi WSW 5.8 mph - N/A   Clear
5:53 PM 62.1 °F - 23.0 °F 22% 29.71 in 10.0 mi WSW 8.1 mph - N/A   Clear
6:53 PM 60.1 °F - 24.1 °F 25% 29.73 in 10.0 mi Calm Calm - N/A   Clear
7:53 PM 55.9 °F - 26.1 °F 32% 29.74 in 10.0 mi NE 6.9 mph - N/A   Mostly Cloudy
8:53 PM 55.0 °F - 26.1 °F 33% 29.71 in 10.0 mi NE 5.8 mph - N/A   Overcast
9:53 PM 54.0 °F - 32.0 °F 43% 29.73 in 10.0 mi North 8.1 mph 17.3 mph N/A   Overcast
10:53 PM 53.1 °F - 34.0 °F 48% 29.72 in 10.0 mi WNW 4.6 mph - N/A   Overcast
11:53 PM 51.1 °F - 34.0 °F 52% 29.72 in 10.0 mi WNW 6.9 mph - N/A   Partly Cloudy